SCP
0 0 0 0 0 0 0 0 0 0 0 0 -0 0 -0 -0 -0 -0 -0 -0 -0 -0 -0 -0 -0 -0 -0 -0 -0 -0 -0 -0 -0 -0 -0 -0 -0 -0 -0 -0 -0 -0 -0
0 0 -0 0 0 0 0 0 0 0 -0 -0 -0 -0 -0 -0 -0 -0 -0 -0 -0 -0 -0 -0 -0 -0 -0 -0 -0 -0 -0 -0 -0 -0 -0 -0 -0 -0 -0 -0 -0 -0 -0
0 0 -0 0 0 -0 0 -0 -0 -0 -0 -0 -0 -0 -0 -0 -0 -0 -0 -0 -0 -0 -0 -0 -0 -0 -0 -0 -0 -0 -0 -0 -0 -0 -0 -0 -0 -0 -0 -0 -0 -0 -0
0 0 0 0 -0 0 0 0 0 0 0 -0 -0 -0 -0 -0 -0 -0 -0 -0 -0 -0 -0 -0 -0 -0 -0 -0 -0 -0 -0 -0 -0 -0 -0 -0 -0 -0 -0 -0 -0 -0 -0
0 0 0 0 -0 -0 0 0 0 -0 -0 -0 -0 -0 -0 -0 -0 -0 -0 -0 -0 -0 -0 -0 -0 -0 -0 -0 -0 -0 -0 -0 -0 -0 -0 -0 -0 -0 -0 -0 -0 -0 -0
0 0 0 0 -0 -0 -0 -0 -0 -0 -0 -0 -0 -0 -0 -0 -0 -0 -0 -0 -0 -0 -0 -0 -0 -0 -0 -0 -0 -0 -0 -0 -0 -0 -0 -0 -0 -0 -0 -0 -0 -0 -0
0 0 0 0 0 -0 -0 -0 -0 -0 -0 -0 -0 -0 -0 -0 -0 -0 -0 -0 -0 -0 -0 -0 -0 -0 -0 -0 -0 -0 -0 -0 -0 -0 -0 -0 -0 -0 -0 -0 -0 -0 -0
0 0 0 0 0 0 -0 -0 -0 -0 -0 -0 -0 -0 -0 -0 -0 -0 -0 -0 -0 -0 -0 -0 -0 -0 -0 -0 -0 -0 -0 -0 -0 -0 -0 -0 -0 -0 -0 -0 -0 -0 -0
0 0 0 0 0 -0 0 -0 -0 -0 -0 -0 -0 -0 -0 -0 -0 -0 -0 -0 -0 -0 -0 -0 -0 -0 -0 -0 -0 -0 -0 -0 -0 -0 -0 -0 -0 -0 -0 -0 -0 -0 -0
0 0 0 0 0 0 0 -0 -0 -0 -0 -0 -0 -0 -0 -0 -0 -0 -0 -0 -0 -0 -0 -0 -0 -0 -0 -0 -0 -0 -0 -0 -0 -0 0 0 -0 -0 -0 -0 -0 -0 -0
0 0 0 0 0 0 0 0 0 -0 -0 0 0 -0 0 0 0 0 -0 -0 -0 -0 -0 -0 -0 -0 -0 -0 -0 -0 -0 0 0 0 0 -0 -0 -0 -0 -0 -0 -0 -0
0 0 0 0 0 0 0 0 0 0 0 0 0 0 0 0 0 0 0 -0 -0 -0 -0 -0 -0 -0 -0 0 0 0 0 0 0 0 0 -0 0 0 0 -0 -0 -0 0
0 0 0 0 0 0 0 0 0 0 0 0 0 0 0 0 0 0 0 0 0 0 0 0 0 0 0 0 0 0 0 0 0 0 0 0 0 0 0 0 0 0 0
0 0 0 0 0 0 0 0 0 0 0 0 0 0 0 0 0 0 0 0 0 0 0 0 0 0 0 0 0 0 0 0 0 0 0 0 0 0 0 0 0 0 0
0 0 0 0 0 0 0 0 0 0 0 0 0 0 0 0 0 0 0 0 0 0 0 0 0 0 0 0 0 0 0 0 0 0 0 0 0 0 0 0 0 0 0
0 0 0 0 0 0 0 0 0 0 0 0 0 0 0 0 0 0 0 0 0 0 0 0 0 0 0 0 0 0 0 0 0 0 0 0 0 0 0 0 0 0 0
0 0 0 0 0 0 0 0 0 0 0 0 0 0 0 0 0 0 0 0 0 0 0 0 0 0 0 0 0 0 0 0 0 0 0 0 0 0 0 0 0 0 0
0 0 0 0 0 0 0 0 0 0 0 0 0 0 0 0 0 0 0 0 0 0 0 0 0 0 0 0 0 0 0 0 0 0 0 0 0 0 0 0 0 0 0
0 0 0 0 0 0 0 0 0 0 0 0 0 0 0 0 0 0 0 0 0 0 0 0 0 0 0 0 0 0 0 0 0 0 0 0 0 0 0 0 0 0 0
0 0 0 0 0 0 0 0 0 0 0 0 0 0 0 0 0 0 0 0 0 0 0 0 0 0 -0 0 0 0 0 0 0 0 0 0 0 0 0 0 0 0 0
0 0 0 0 0 0 0 0 0 0 0 0 0 0 0 0 0 0 0 0 0 0 0 0 0 0 -0 0 -0 0 0 0 0 0 0 0 0 0 0 0 0 0 0
0 0 0 0 0 0 0 0 0 0 0 0 0 0 0 0 0 0 0 0 0 0 0 0 0 0 -0 -0 -0 -0 0 0 0 0 0 0 0 0 0 0 0 0 0
0 0 0 0 0 0 0 0 0 0 0 0 0 0 0 0 0 0 0 0 0 0 0 0 0 0 0 -0 -0 -0 -0 0 0 0 0 0 0 0 0 0 0 0 0
0 0 0 0 0 0 0 0 0 0 0 0 0 0 0 0 0 0 0 0 0 0 0 0 0 0 0 0 -0 0 -0 0 0 0 0 0 0 0 0 0 0 0 0
0 0 0 0 0 0 0 0 0 0 0 0 0 0 0 0 0 0 0 0 0 0 0 0 0 0 0 0 0 0 0 0 0 0 0 0 0 0 0 0 0 0 0
0 0 0 0 0 0 0 0 0 0 0 0 0 0 0 0 0 0 0 0 0 0 0 0 0 0 0 0 0 0 0 0 0 0 0 0 0 0 0 0 0 0 0
Wind_Speed_500mb
14 16 16 14 19 18 25 32 32 28 32 33 33 33 33 33 34 34 35 36 35 33 35 34 35 31 29 31 31 32 30 28 27 27 26 22 17 16 17 18 19 21 22
25 13 14 17 17 25 26 31 31 31 34 36 36 35 32 30 29 27 27 29 31 32 34 31 30 31 29 24 28 29 28 27 25 24 25 22 20 15 13 12 13 14 16
15 17 13 44 36 42 40 45 44 43 43 40 36 28 23 19 17 18 19 18 18 18 20 24 23 25 25 25 24 24 26 26 23 17 14 13 15 18 12 10 8 8 7
23 26 21 40 36 26 25 30 34 18 17 17 15 12 14 14 13 13 14 14 14 14 12 12 15 20 21 24 23 22 17 13 11 9 10 6 10 14 11 10 8 5 4
31 28 15 28 34 31 28 20 19 20 19 16 14 12 12 11 14 15 16 15 16 16 16 15 14 13 13 16 19 18 14 13 12 16 19 16 12 12 12 10 9 6 4
38 31 19 23 27 29 28 23 20 20 17 15 13 13 14 15 15 14 14 14 15 16 16 17 16 14 12 11 11 13 15 14 15 14 13 16 17 19 16 11 7 7 7
40 31 26 25 26 27 25 23 20 17 15 13 11 10 10 11 13 12 11 11 11 10 10 10 9 11 11 9 9 8 9 8 8 9 8 5 10 15 14 15 15 13 10
37 34 29 27 25 23 23 21 19 16 14 12 8 6 6 7 8 8 7 8 8 7 6 6 6 6 5 4 4 5 4 4 7 9 7 10 11 9 12 7 4 7 13
41 36 31 28 27 23 20 19 17 14 11 8 8 6 6 6 5 5 6 6 7 7 7 8 7 6 4 3 2 3 3 6 11 15 16 20 18 19 25 20 20 16 7
45 40 36 31 26 23 21 18 14 11 12 9 8 6 5 6 6 5 4 4 4 5 4 5 5 5 5 5 5 3 6 10 14 18 20 20 21 24 25 26 26 25 25
45 42 39 35 29 24 20 16 14 14 12 9 8 8 7 7 5 5 4 3 3 2 2 2 2 3 5 6 8 9 11 12 14 18 23 25 26 27 29 29 29 31 32
49 44 38 36 32 27 22 17 14 12 11 11 10 9 9 7 6 4 3 2 3 6 7 6 6 6 6 5 6 8 11 13 16 19 23 25 29 32 33 33 32 32 33
51 48 43 39 34 31 25 21 19 17 16 14 13 12 10 8 6 5 2 1 2 3 4 6 8 11 14 15 17 19 22 22 22 22 25 27 28 31 34 37 37 36 36
55 51 47 44 39 34 28 23 22 22 20 18 16 14 10 8 6 4 3 1 2 5 9 13 16 21 22 22 24 25 25 25 26 27 28 32 33 36 39 40 40 42 41
59 55 51 47 40 34 30 27 26 26 25 21 16 14 12 9 6 5 2 2 5 10 15 18 21 23 24 25 27 27 27 27 27 27 28 31 33 35 37 38 41 39 37
64 60 56 51 43 38 34 31 30 30 26 21 17 14 11 10 7 5 2 4 9 14 19 23 24 25 25 24 23 23 25 25 25 24 23 21 23 25 26 19 25 23 25
68 62 58 52 47 41 39 38 37 32 28 24 21 18 15 13 9 7 4 8 14 18 22 23 24 26 26 25 26 26 28 27 24 19 15 17 17 18 17 19 22 25 28
70 69 62 57 50 45 43 42 39 35 29 25 21 18 14 10 5 3 8 13 18 21 24 27 27 29 30 31 31 30 32 28 22 25 24 21 19 22 23 25 27 31 34
74 70 66 59 53 49 49 45 39 33 28 24 21 17 14 9 6 6 10 15 19 22 25 28 32 35 37 37 38 36 34 28 30 26 16 12 14 19 27 35 39 40 43
76 72 67 63 58 54 51 47 42 36 33 29 23 19 15 10 6 7 11 15 19 22 25 28 31 36 40 44 42 40 33 29 27 17 11 19 47 39 37 36 42 46 45
81 79 75 70 63 60 59 54 48 42 36 30 26 22 16 9 6 7 12 16 19 23 27 31 33 36 41 48 51 47 36 29 15 8 24 55 28 46 33 34 55 52 54
90 86 80 73 67 63 59 55 48 42 38 32 27 21 16 10 7 7 10 14 17 21 25 29 35 38 42 46 48 42 29 24 11 47 16 45 35 43 54 54 58 59 56
96 93 84 75 70 66 62 57 51 47 42 37 32 24 16 11 9 9 10 13 18 23 26 31 33 36 40 39 38 26 16 14 70 26 51 40 61 62 56 68 61 58 57
98 90 83 76 73 69 66 61 57 53 46 39 31 23 18 14 10 10 12 15 20 24 27 28 31 32 34 35 34 33 27 29 20 35 56 77 65 71 70 66 66 62 58
101 93 83 79 75 72 67 60 55 48 41 37 31 26 19 14 11 12 14 18 22 24 26 27 27 28 31 33 35 39 42 42 39 35 52 38 80 74 72 68 61 58 53
99 91 86 84 78 73 69 64 57 51 45 40 34 26 20 16 14 15 17 20 22 24 24 25 27 29 31 33 35 37 39 44 53 52 69 77 75 71 74 74 55 57 54
Wind_Direction_500mb
150 184 172 142 126 132 137 133 125 128 123 119 114 106 101 96 92 89 85 80 76 74 67 56 63 70 76 81 87 89 85 84 80 73 75 75 79 84 81 81 82 76 72
103 109 181 141 129 136 123 128 127 125 119 116 108 106 105 108 106 106 99 94 91 84 77 75 70 67 68 85 91 94 84 80 79 73 68 61 56 65 66 76 83 82 73
223 279 22 147 133 107 112 130 119 113 113 109 113 117 120 115 101 89 87 91 97 97 88 85 86 82 77 85 98 109 98 93 87 73 66 59 54 56 62 54 61 67 70
174 231 106 135 135 125 141 128 135 124 122 123 124 119 107 104 88 79 78 77 84 94 103 93 83 82 80 83 91 105 118 117 101 78 49 20 19 24 43 53 56 57 21
152 209 166 163 169 175 187 164 148 149 151 147 133 119 104 93 87 83 80 78 78 83 84 83 83 78 73 80 89 96 110 97 81 68 49 21 350 344 348 4 19 14 335
168 190 158 152 155 157 157 145 137 133 131 129 125 123 113 107 99 89 88 86 82 77 75 80 85 89 87 84 98 104 114 115 85 69 56 27 24 11 355 335 312 311 329
171 175 163 159 153 145 144 143 139 136 134 131 133 107 99 98 101 108 104 101 94 89 82 70 57 59 64 72 84 100 117 141 141 137 115 52 32 34 29 8 348 314 285
178 174 165 163 157 153 144 144 145 144 148 147 133 126 118 112 109 104 97 86 83 79 74 75 70 55 45 19 40 81 121 192 206 226 207 208 233 288 305 319 8 3 330
177 179 172 169 166 167 164 162 159 162 175 174 167 162 154 130 121 116 103 88 79 62 39 31 26 31 45 24 346 326 271 244 252 251 253 246 260 258 271 282 291 290 297
179 182 181 179 178 177 176 178 178 185 201 198 191 175 160 159 158 135 113 95 80 70 40 19 13 3 354 351 332 299 274 266 265 266 269 267 267 273 280 284 280 278 280
187 186 184 186 185 185 192 193 195 205 204 197 187 178 179 176 170 174 169 135 131 119 87 72 27 358 346 341 322 310 290 275 262 263 266 267 270 274 282 286 289 291 292
192 194 196 190 189 199 202 205 211 212 208 196 190 190 193 196 193 189 174 129 50 34 20 14 10 1 339 314 299 297 289 283 279 275 273 273 276 280 279 276 273 272 274
195 198 201 204 199 201 202 203 209 210 207 204 197 193 203 209 210 199 193 93 38 20 359 360 348 336 334 334 330 322 311 301 290 283 279 275 274 274 278 284 286 283 280
202 204 205 206 204 205 207 213 213 205 204 201 199 203 208 218 221 226 219 215 338 332 342 345 343 339 332 332 329 325 315 308 302 296 292 286 281 277 274 271 271 276 278
205 204 204 207 204 209 211 211 204 201 202 203 205 211 214 222 221 220 226 304 335 340 339 338 336 330 332 336 331 327 320 316 313 307 302 298 294 290 288 286 284 282 281
206 205 205 206 207 210 215 213 210 207 207 210 214 217 219 228 228 228 255 321 337 338 337 337 335 332 333 333 327 322 317 317 318 314 311 307 296 291 291 291 287 292 295
208 209 209 207 206 209 211 210 206 207 212 215 213 213 210 212 216 228 290 338 339 345 347 344 338 335 335 335 334 333 332 336 334 331 328 316 312 303 301 296 297 302 304
212 210 208 207 207 210 212 211 210 208 207 207 205 203 204 208 220 302 340 345 348 349 345 338 335 336 336 335 336 339 340 339 332 326 313 302 297 301 305 309 308 304 298
214 211 208 208 209 210 210 209 206 206 205 205 206 207 210 219 252 312 338 345 346 341 338 337 337 336 335 335 336 341 338 332 328 323 316 313 334 320 307 301 295 293 293
216 213 212 210 208 206 207 205 204 204 206 208 208 209 216 226 260 316 337 340 338 337 336 337 339 339 337 335 335 335 333 329 328 318 302 318 316 304 301 303 304 304 297
216 214 213 211 207 206 206 206 206 207 206 205 206 209 214 227 267 312 329 336 335 335 337 338 337 338 338 336 335 332 336 340 324 301 313 302 301 316 314 308 310 307 304
217 214 213 211 208 207 210 211 211 207 204 206 208 210 217 230 258 299 322 325 330 335 335 335 336 340 343 348 349 347 335 326 266 306 321 310 310 319 311 312 311 311 309
214 213 210 208 206 206 206 204 201 204 206 206 206 212 216 229 252 286 309 318 324 328 332 335 335 338 343 350 354 5 345 318 321 306 321 317 318 318 317 317 316 314 313
214 210 209 207 205 204 205 205 210 212 209 205 205 209 218 231 256 285 304 312 319 325 329 333 337 339 340 341 344 341 336 319 312 311 310 313 319 319 317 318 317 318 318
212 207 206 205 203 204 204 206 209 209 206 205 203 209 216 229 255 279 295 307 314 320 326 331 332 333 335 334 332 329 325 320 317 303 305 304 313 318 316 314 311 314 316
209 205 204 203 201 202 204 204 205 207 206 203 204 208 214 229 250 272 291 301 307 314 321 325 326 327 327 326 323 321 318 316 313 311 306 308 309 313 314 312 311 317 317
Wind_Speed_850mb
14 16 16 14 19 18 25 32 32 28 32 33 33 33 33 33 34 34 35 36 35 33 35 34 35 31 29 31 31 32 30 28 27 27 26 22 17 16 17 18 19 21 22
25 13 14 17 17 25 26 31 31 31 34 36 36 35 32 30 29 27 27 29 31 32 34 31 30 31 29 24 28 29 28 27 25 24 25 22 20 15 13 12 13 14 16
15 17 13 44 36 42 40 45 44 43 43 40 36 28 23 19 17 18 19 18 18 18 20 24 23 25 25 25 24 24 26 26 23 17 14 13 15 18 12 10 8 8 7
23 26 21 40 36 26 25 30 34 18 17 17 15 12 14 14 13 13 14 14 14 14 12 12 15 20 21 24 23 22 17 13 11 9 10 6 10 14 11 10 8 5 4
31 28 15 28 34 31 28 20 19 20 19 16 14 12 12 11 14 15 16 15 16 16 16 15 14 13 13 16 19 18 14 13 12 16 19 16 12 12 12 10 9 6 4
38 31 19 23 27 29 28 23 20 20 17 15 13 13 14 15 15 14 14 14 15 16 16 17 16 14 12 11 11 13 15 14 15 14 13 16 17 19 16 11 7 7 7
40 31 26 25 26 27 25 23 20 17 15 13 11 10 10 11 13 12 11 11 11 10 10 10 9 11 11 9 9 8 9 8 8 9 8 5 10 15 14 15 15 13 10
37 34 29 27 25 23 23 21 19 16 14 12 8 6 6 7 8 8 7 8 8 7 6 6 6 6 5 4 4 5 4 4 7 9 7 10 11 9 12 7 4 7 13
41 36 31 28 27 23 20 19 17 14 11 8 8 6 6 6 5 5 6 6 7 7 7 8 7 6 4 3 2 3 3 6 11 15 16 20 18 19 25 20 20 16 7
45 40 36 31 26 23 21 18 14 11 12 9 8 6 5 6 6 5 4 4 4 5 4 5 5 5 5 5 5 3 6 10 14 18 20 20 21 24 25 26 26 25 25
45 42 39 35 29 24 20 16 14 14 12 9 8 8 7 7 5 5 4 3 3 2 2 2 2 3 5 6 8 9 11 12 14 18 23 25 26 27 29 29 29 31 32
49 44 38 36 32 27 22 17 14 12 11 11 10 9 9 7 6 4 3 2 3 6 7 6 6 6 6 5 6 8 11 13 16 19 23 25 29 32 33 33 32 32 33
51 48 43 39 34 31 25 21 19 17 16 14 13 12 10 8 6 5 2 1 2 3 4 6 8 11 14 15 17 19 22 22 22 22 25 27 28 31 34 37 37 36 36
55 51 47 44 39 34 28 23 22 22 20 18 16 14 10 8 6 4 3 1 2 5 9 13 16 21 22 22 24 25 25 25 26 27 28 32 33 36 39 40 40 42 41
59 55 51 47 40 34 30 27 26 26 25 21 16 14 12 9 6 5 2 2 5 10 15 18 21 23 24 25 27 27 27 27 27 27 28 31 33 35 37 38 41 39 37
64 60 56 51 43 38 34 31 30 30 26 21 17 14 11 10 7 5 2 4 9 14 19 23 24 25 25 24 23 23 25 25 25 24 23 21 23 25 26 19 25 23 25
68 62 58 52 47 41 39 38 37 32 28 24 21 18 15 13 9 7 4 8 14 18 22 23 24 26 26 25 26 26 28 27 24 19 15 17 17 18 17 19 22 25 28
70 69 62 57 50 45 43 42 39 35 29 25 21 18 14 10 5 3 8 13 18 21 24 27 27 29 30 31 31 30 32 28 22 25 24 21 19 22 23 25 27 31 34
74 70 66 59 53 49 49 45 39 33 28 24 21 17 14 9 6 6 10 15 19 22 25 28 32 35 37 37 38 36 34 28 30 26 16 12 14 19 27 35 39 40 43
76 72 67 63 58 54 51 47 42 36 33 29 23 19 15 10 6 7 11 15 19 22 25 28 31 36 40 44 42 40 33 29 27 17 11 19 47 39 37 36 42 46 45
81 79 75 70 63 60 59 54 48 42 36 30 26 22 16 9 6 7 12 16 19 23 27 31 33 36 41 48 51 47 36 29 15 8 24 55 28 46 33 34 55 52 54
90 86 80 73 67 63 59 55 48 42 38 32 27 21 16 10 7 7 10 14 17 21 25 29 35 38 42 46 48 42 29 24 11 47 16 45 35 43 54 54 58 59 56
96 93 84 75 70 66 62 57 51 47 42 37 32 24 16 11 9 9 10 13 18 23 26 31 33 36 40 39 38 26 16 14 70 26 51 40 61 62 56 68 61 58 57
98 90 83 76 73 69 66 61 57 53 46 39 31 23 18 14 10 10 12 15 20 24 27 28 31 32 34 35 34 33 27 29 20 35 56 77 65 71 70 66 66 62 58
101 93 83 79 75 72 67 60 55 48 41 37 31 26 19 14 11 12 14 18 22 24 26 27 27 28 31 33 35 39 42 42 39 35 52 38 80 74 72 68 61 58 53
99 91 86 84 78 73 69 64 57 51 45 40 34 26 20 16 14 15 17 20 22 24 24 25 27 29 31 33 35 37 39 44 53 52 69 77 75 71 74 74 55 57 54
Wind_Direction_850mb
150 184 172 142 126 132 137 133 125 128 123 119 114 106 101 96 92 89 85 80 76 74 67 56 63 70 76 81 87 89 85 84 80 73 75 75 79 84 81 81 82 76 72
103 109 181 141 129 136 123 128 127 125 119 116 108 106 105 108 106 106 99 94 91 84 77 75 70 67 68 85 91 94 84 80 79 73 68 61 56 65 66 76 83 82 73
223 279 22 147 133 107 112 130 119 113 113 109 113 117 120 115 101 89 87 91 97 97 88 85 86 82 77 85 98 109 98 93 87 73 66 59 54 56 62 54 61 67 70
174 231 106 135 135 125 141 128 135 124 122 123 124 119 107 104 88 79 78 77 84 94 103 93 83 82 80 83 91 105 118 117 101 78 49 20 19 24 43 53 56 57 21
152 209 166 163 169 175 187 164 148 149 151 147 133 119 104 93 87 83 80 78 78 83 84 83 83 78 73 80 89 96 110 97 81 68 49 21 350 344 348 4 19 14 335
168 190 158 152 155 157 157 145 137 133 131 129 125 123 113 107 99 89 88 86 82 77 75 80 85 89 87 84 98 104 114 115 85 69 56 27 24 11 355 335 312 311 329
171 175 163 159 153 145 144 143 139 136 134 131 133 107 99 98 101 108 104 101 94 89 82 70 57 59 64 72 84 100 117 141 141 137 115 52 32 34 29 8 348 314 285
178 174 165 163 157 153 144 144 145 144 148 147 133 126 118 112 109 104 97 86 83 79 74 75 70 55 45 19 40 81 121 192 206 226 207 208 233 288 305 319 8 3 330
177 179 172 169 166 167 164 162 159 162 175 174 167 162 154 130 121 116 103 88 79 62 39 31 26 31 45 24 346 326 271 244 252 251 253 246 260 258 271 282 291 290 297
179 182 181 179 178 177 176 178 178 185 201 198 191 175 160 159 158 135 113 95 80 70 40 19 13 3 354 351 332 299 274 266 265 266 269 267 267 273 280 284 280 278 280
187 186 184 186 185 185 192 193 195 205 204 197 187 178 179 176 170 174 169 135 131 119 87 72 27 358 346 341 322 310 290 275 262 263 266 267 270 274 282 286 289 291 292
192 194 196 190 189 199 202 205 211 212 208 196 190 190 193 196 193 189 174 129 50 34 20 14 10 1 339 314 299 297 289 283 279 275 273 273 276 280 279 276 273 272 274
195 198 201 204 199 201 202 203 209 210 207 204 197 193 203 209 210 199 193 93 38 20 359 360 348 336 334 334 330 322 311 301 290 283 279 275 274 274 278 284 286 283 280
202 204 205 206 204 205 207 213 213 205 204 201 199 203 208 218 221 226 219 215 338 332 342 345 343 339 332 332 329 325 315 308 302 296 292 286 281 277 274 271 271 276 278
205 204 204 207 204 209 211 211 204 201 202 203 205 211 214 222 221 220 226 304 335 340 339 338 336 330 332 336 331 327 320 316 313 307 302 298 294 290 288 286 284 282 281
206 205 205 206 207 210 215 213 210 207 207 210 214 217 219 228 228 228 255 321 337 338 337 337 335 332 333 333 327 322 317 317 318 314 311 307 296 291 291 291 287 292 295
208 209 209 207 206 209 211 210 206 207 212 215 213 213 210 212 216 228 290 338 339 345 347 344 338 335 335 335 334 333 332 336 334 331 328 316 312 303 301 296 297 302 304
212 210 208 207 207 210 212 211 210 208 207 207 205 203 204 208 220 302 340 345 348 349 345 338 335 336 336 335 336 339 340 339 332 326 313 302 297 301 305 309 308 304 298
214 211 208 208 209 210 210 209 206 206 205 205 206 207 210 219 252 312 338 345 346 341 338 337 337 336 335 335 336 341 338 332 328 323 316 313 334 320 307 301 295 293 293
216 213 212 210 208 206 207 205 204 204 206 208 208 209 216 226 260 316 337 340 338 337 336 337 339 339 337 335 335 335 333 329 328 318 302 318 316 304 301 303 304 304 297
216 214 213 211 207 206 206 206 206 207 206 205 206 209 214 227 267 312 329 336 335 335 337 338 337 338 338 336 335 332 336 340 324 301 313 302 301 316 314 308 310 307 304
217 214 213 211 208 207 210 211 211 207 204 206 208 210 217 230 258 299 322 325 330 335 335 335 336 340 343 348 349 347 335 326 266 306 321 310 310 319 311 312 311 311 309
214 213 210 208 206 206 206 204 201 204 206 206 206 212 216 229 252 286 309 318 324 328 332 335 335 338 343 350 354 5 345 318 321 306 321 317 318 318 317 317 316 314 313
214 210 209 207 205 204 205 205 210 212 209 205 205 209 218 231 256 285 304 312 319 325 329 333 337 339 340 341 344 341 336 319 312 311 310 313 319 319 317 318 317 318 318
212 207 206 205 203 204 204 206 209 209 206 205 203 209 216 229 255 279 295 307 314 320 326 331 332 333 335 334 332 329 325 320 317 303 305 304 313 318 316 314 311 314 316
209 205 204 203 201 202 204 204 205 207 206 203 204 208 214 229 250 272 291 301 307 314 321 325 326 327 327 326 323 321 318 316 313 311 306 308 309 313 314 312 311 317 317